Change the Weather History Date:

Saturday, March 16, 2013

  Actual Average (LTCC) Record (LTCC)
Temperature  
Mean Temperature 66 °F -  
Max Temperature 73 °F 56 °F 75 °F (2013)
Min Temperature 60 °F 34 °F 28 °F (2004)
Cooling Degree Days 2    
Growing Degree Days 16 (Base 50)    
Moisture  
Dew Point 41 °F    
Average Humidity 40    
Maximum Humidity 59    
Minimum Humidity 25    
Precipitation  
Precipitation 0.00 in - - ()
Sea Level Pressure  
Sea Level Pressure 29.81 in    
Wind  
Wind Speed 13 mph ()    
Max Wind Speed 29 mph    
Max Gust Speed 45 mph    
Visibility 6.1 miles    
Events Rain , Thunderstorm    
Averages and records for this station are not official NWS values.
T = Trace of Precipitation, MM = Missing Value Source: Averaged Metar Reports

Daily Weather History Graph

Daily Weather History Graph

Search for Another Location

Airport or City:

Trip Planner

Search our weather history database for the weather conditions in past years. The results will help you decide how hot, cold, wet, or windy it might be!

Date:

Astronomy

Mar. 16, 2013 Rise Set
Actual Time 5:25 AM EET 5:23 PM EET
Civil Twilight 4:59 AM EET 5:49 PM EET
Nautical Twilight 4:28 AM EET 6:20 PM EET
Astronomical Twilight 3:57 AM EET 6:51 PM EET
Moon 7:45 AM EET (3/16) 10:07 PM EET (3/16)
Length of Visible Light 12h 50m
Length of Day
11h 58m
Waxing Crescent, 21% of the Moon is Illuminated
Mar 16
Waxing Crescent
Mar 19
First Quarter
Mar 27
Full
Apr 3
Last Quarter
Apr 10
New

Hourly Weather History & Observations

Time (EET) Temp. Dew Point Humidity Pressure Visibility Wind Dir Wind Speed Gust Speed Precip Events Conditions
12:20 AM 60.8 °F 42.8 °F 52% 29.92 in - NNE 9.2 mph - N/A   Clear
12:50 AM 60.8 °F 42.8 °F 52% 29.92 in 6.2 mi North 10.4 mph - N/A   Mostly Cloudy
1:20 AM 69.8 °F 32.0 °F 25% 29.95 in 6.2 mi WNW 10.4 mph - N/A   Mostly Cloudy
1:50 AM 66.2 °F 37.4 °F 35% 29.98 in 6.2 mi NW 9.2 mph - N/A Rain Light Rain Showers
2:20 AM 62.6 °F 42.8 °F 48% 29.98 in 6.2 mi ENE 8.1 mph - N/A Rain Light Rain Showers
2:50 AM 60.8 °F 42.8 °F 52% 29.98 in 6.2 mi North 6.9 mph - N/A   Mostly Cloudy
3:20 AM 60.8 °F 42.8 °F 52% 29.98 in 6.2 mi ESE 9.2 mph - N/A   Mostly Cloudy
3:50 AM 64.4 °F 39.2 °F 40% 29.92 in 6.2 mi East 12.7 mph - N/A   Mostly Cloudy
4:20 AM 68.0 °F 33.8 °F 28% 29.89 in 6.2 mi East 15.0 mph - N/A   Mostly Cloudy
4:50 AM 69.8 °F 33.8 °F 27% 29.86 in 6.2 mi East 15.0 mph - N/A   Mostly Cloudy
5:20 AM 66.2 °F 37.4 °F 35% 29.89 in 6.2 mi ENE 6.9 mph - N/A   Mostly Cloudy
5:50 AM 69.8 °F 33.8 °F 27% 29.86 in 6.2 mi ESE 17.3 mph 28.8 mph N/A   Mostly Cloudy
6:20 AM 69.8 °F 33.8 °F 27% 29.89 in 6.2 mi ESE 16.1 mph - N/A   Mostly Cloudy
6:50 AM 68.0 °F 37.4 °F 33% 29.92 in 6.2 mi SSE 6.9 mph - N/A   Mostly Cloudy
7:20 AM 68.0 °F 33.8 °F 28% 29.86 in 6.2 mi East 15.0 mph - N/A   Mostly Cloudy
7:50 AM 69.8 °F 35.6 °F 28% 29.86 in 6.2 mi ESE 17.3 mph - N/A   Mostly Cloudy
7:56 AM 71.6 °F 37.4 °F 29% 29.83 in 6.2 mi ESE 13.8 mph 39.1 mph N/A   Mostly Cloudy
8:20 AM 69.8 °F 41.0 °F 35% 29.80 in 6.2 mi East 16.1 mph - N/A   Mostly Cloudy
8:50 AM 69.8 °F 41.0 °F 35% 29.77 in 6.2 mi East 18.4 mph - N/A   Mostly Cloudy
9:20 AM 71.6 °F 41.0 °F 33% 29.80 in 6.2 mi ENE 12.7 mph - N/A   Mostly Cloudy
9:50 AM 73.4 °F 37.4 °F 27% 29.80 in 6.2 mi East 16.1 mph 31.1 mph N/A   Mostly Cloudy
10:20 AM 71.6 °F 41.0 °F 33% 29.80 in 6.2 mi East 23.0 mph - N/A   Mostly Cloudy
10:50 AM 71.6 °F 41.0 °F 33% 29.77 in 6.2 mi East 20.7 mph - N/A   Mostly Cloudy
11:20 AM 69.8 °F 41.0 °F 35% 29.77 in 6.2 mi East 21.9 mph - N/A   Mostly Cloudy
11:50 AM 69.8 °F 41.0 °F 35% 29.77 in 6.2 mi East 24.2 mph - N/A   Mostly Cloudy
12:20 PM 71.6 °F 39.2 °F 31% 29.77 in 6.2 mi ESE 28.8 mph 41.4 mph N/A   Mostly Cloudy
12:50 PM 68.0 °F 44.6 °F 43% 29.77 in 6.2 mi NE 16.1 mph 28.8 mph N/A   Mostly Cloudy
1:20 PM 68.0 °F 44.6 °F 43% 29.77 in 6.2 mi East 13.8 mph - N/A   Mostly Cloudy
1:50 PM 71.6 °F 39.2 °F 31% 29.77 in 6.2 mi East 16.1 mph - N/A   Mostly Cloudy
2:20 PM 71.6 °F 37.4 °F 29% 29.77 in 6.2 mi East 13.8 mph - N/A   Mostly Cloudy
2:50 PM 68.0 °F 41.0 °F 37% 29.74 in 6.2 mi ENE 12.7 mph - N/A   Mostly Cloudy
3:20 PM 71.6 °F 37.4 °F 29% 29.77 in 6.2 mi East 13.8 mph 27.6 mph N/A   Mostly Cloudy
3:50 PM 68.0 °F 39.2 °F 35% 29.77 in 6.2 mi NE 12.7 mph - N/A   Mostly Cloudy
4:09 PM 69.8 °F 39.2 °F 33% 29.77 in 5.0 mi ESE 9.2 mph - N/A Thunderstorm Thunderstorm
4:20 PM 69.8 °F 37.4 °F 31% 29.80 in 5.0 mi Variable 8.1 mph - N/A Thunderstorm Thunderstorm
4:50 PM 64.4 °F 42.8 °F 45% 29.77 in 6.2 mi North 17.3 mph - N/A   Mostly Cloudy
5:06 PM 66.2 °F 42.8 °F 43% 29.80 in 6.2 mi North 11.5 mph - N/A Thunderstorm Thunderstorm
5:12 PM 66.2 °F 44.6 °F 46% 29.77 in 5.6 mi North 6.9 mph - N/A Rain , Thunderstorm Light Thunderstorms and Rain
5:20 PM 64.4 °F 44.6 °F 49% 29.74 in 5.6 mi ENE 17.3 mph - N/A Rain , Thunderstorm Light Thunderstorms and Rain
5:34 PM 62.6 °F 46.4 °F 55% 29.77 in 6.2 mi NE 18.4 mph - N/A Thunderstorm Thunderstorm
5:50 PM 62.6 °F 44.6 °F 52% 29.77 in 6.2 mi NE 10.4 mph - N/A Thunderstorm Thunderstorm
6:20 PM 66.2 °F 41.0 °F 40% 29.74 in 6.2 mi East 21.9 mph - N/A   Mostly Cloudy
6:50 PM 66.2 °F 42.8 °F 43% 29.71 in 6.2 mi East 19.6 mph - N/A   Mostly Cloudy
7:20 PM 64.4 °F 44.6 °F 49% 29.74 in 6.2 mi ENE 16.1 mph - N/A   Mostly Cloudy
7:50 PM 66.2 °F 42.8 °F 43% 29.77 in 6.2 mi ESE 15.0 mph - N/A   Mostly Cloudy
8:20 PM 66.2 °F 42.8 °F 43% 29.77 in 6.2 mi East 12.7 mph - N/A   Mostly Cloudy
8:50 PM 66.2 °F 42.8 °F 43% 29.77 in 6.2 mi East 13.8 mph - N/A   Mostly Cloudy
9:20 PM 66.2 °F 42.8 °F 43% 29.74 in 6.2 mi Variable 8.1 mph 23.0 mph N/A   Mostly Cloudy
9:50 PM 66.2 °F 42.8 °F 43% 29.71 in 6.2 mi SE 24.2 mph 38.0 mph N/A   Mostly Cloudy
10:20 PM 64.4 °F 44.6 °F 49% 29.71 in 6.2 mi SE 28.8 mph 44.9 mph N/A   Mostly Cloudy
10:50 PM 62.6 °F 46.4 °F 55% 29.71 in 6.2 mi ESE 19.6 mph 33.4 mph N/A   Mostly Cloudy
11:20 PM 62.6 °F 46.4 °F 55% 29.71 in 6.2 mi ESE 20.7 mph 36.8 mph N/A   Mostly Cloudy
11:30 PM 62.6 °F 48.2 °F 59% 29.71 in 6.2 mi ESE 20.7 mph - N/A   Mostly Cloudy
11:50 PM 62.6 °F 48.2 °F 59% 29.71 in 6.2 mi ESE 16.1 mph - N/A Rain , Thunderstorm Light Thunderstorms and Rain